| time (UTC) | temp F | wind direction | speed MPH | gust MPH | rain 1hr in | rain 24hr in | rain mn in | humidity % | barometer mb |
| 20260508073306 | 64 | 337 | 2.0 | 6.0 | 0.02 | 0.03 | 0.03 | 4 | 1010.9 |
| 20260508072805 | 64 | 353 | 2.0 | 10.0 | 0.02 | 0.03 | 0.03 | 4 | 1011.1 |
| 20260508072308 | 64 | 330 | 3.0 | 13.0 | 0.01 | 0.02 | 0.02 | 4 | 1010.9 |
| 20260508071307 | 64 | 345 | 2.0 | 3.0 | 0.01 | 0.02 | 0.02 | 4 | 1010.9 |
| 20260508070305 | 64 | 346 | 3.0 | 7.0 | 0.02 | 0.02 | 0.02 | 4 | 1011.1 |
| 20260508065307 | 64 | 333 | 3.0 | 7.0 | 0.02 | 0.02 | 0.02 | 4 | 1011.0 |
| 20260508064307 | 64 | 336 | 2.0 | 8.0 | 0.02 | 0.02 | 0.02 | 4 | 1010.8 |
| 20260508063305 | 65 | 326 | 2.0 | 7.0 | 0.02 | 0.02 | 0.02 | 4 | 1010.7 |
| 20260508062805 | 65 | 344 | 3.0 | 21.0 | 0.02 | 0.02 | 0.02 | 4 | 1010.7 |
| 20260508062306 | 65 | 347 | 3.0 | 8.0 | 0.02 | 0.02 | 0.02 | 4 | 1010.9 |
| 20260508061806 | 65 | 340 | 1.0 | 5.0 | 0.02 | 0.02 | 0.02 | 4 | 1010.9 |
| 20260508061307 | 65 | 339 | 3.0 | 10.0 | 0.02 | 0.02 | 0.02 | 4 | 1010.9 |
| 20260508060304 | 65 | 327 | 2.0 | 6.0 | 0.01 | 0.01 | 0.01 | 4 | 1011.0 |
| 20260508053304 | 66 | 329 | 2.0 | 7.0 | 0.00 | 0.00 | 0.00 | 4 | 1011.7 |
| 20260508052805 | 66 | 346 | 3.0 | 10.0 | 0.00 | 0.00 | 0.00 | 4 | 1011.7 |
| 20260508052307 | 66 | 357 | 2.0 | 9.0 | 0.00 | 0.00 | 0.00 | 4 | 1011.9 |
| 20260508051305 | 66 | 337 | 2.0 | 10.0 | 0.00 | 0.00 | 0.00 | 4 | 1011.9 |
| 20260508050804 | 66 | 348 | 3.0 | 8.0 | 0.00 | 0.00 | 0.00 | 4 | 1012.1 |
| 20260508041804 | 67 | 343 | 2.0 | 10.0 | 0.00 | 0.00 | 0.00 | 4 | 1013.1 |
| 20260508040803 | 67 | 351 | 3.0 | 9.0 | 0.00 | 0.00 | 0.00 | 4 | 1013.1 |
| 20260508040303 | 67 | 344 | 4.0 | 13.0 | 0.00 | 0.00 | 0.00 | 4 | 1013.2 |
| 20260508035306 | 67 | 338 | 3.0 | 10.0 | 0.00 | 0.00 | 0.00 | 4 | 1013.3 |
| 20260508034304 | 67 | 342 | 3.0 | 17.0 | 0.00 | 0.00 | 0.00 | 4 | 1013.3 |
| 20260508033304 | 67 | 315 | 3.0 | 7.0 | 0.00 | 0.00 | 0.00 | 4 | 1013.2 |
| 20260508032306 | 67 | 331 | 2.0 | 12.0 | 0.00 | 0.00 | 0.00 | 4 | 1013.0 |
| 20260508030804 | 67 | 338 | 3.0 | 13.0 | 0.00 | 0.00 | 0.00 | 4 | 1013.3 |
| 20260508030304 | 67 | 330 | 2.0 | 8.0 | 0.00 | 0.00 | 0.00 | 4 | 1013.2 |
| 20260508023304 | 68 | 12 | 3.0 | 12.0 | 0.00 | 0.00 | 0.00 | 4 | 1013.4 |
| 20260508022803 | 68 | 13 | 3.0 | 12.0 | 0.00 | 0.00 | 0.00 | 4 | 1013.5 |
| 20260508020804 | 68 | 325 | 3.0 | 13.0 | 0.00 | 0.00 | 0.00 | 4 | 1013.9 |
| 20260508020303 | 69 | 348 | 4.0 | 10.0 | 0.00 | 0.00 | 0.00 | 4 | 1013.9 |
| 20260508015804 | 68 | 336 | 3.0 | 9.0 | 0.00 | 0.00 | 0.00 | 4 | 1014.1 |
| 20260508015306 | 68 | 326 | 5.0 | 16.0 | 0.00 | 0.00 | 0.00 | 4 | 1014.0 |
| 20260508014304 | 68 | 344 | 3.0 | 13.0 | 0.00 | 0.00 | 0.00 | 4 | 1014.2 |
| 20260508013303 | 67 | 313 | 3.0 | 15.0 | 0.00 | 0.00 | 0.00 | 4 | 1014.4 |
| 20260508012803 | 67 | 346 | 3.0 | 10.0 | 0.00 | 0.00 | 0.00 | 4 | 1014.4 |
| 20260508005803 | 66 | 351 | 4.0 | 12.0 | 0.00 | 0.00 | 0.00 | 4 | 1015.0 |
| 20260508005305 | 66 | 330 | 3.0 | 9.0 | 0.00 | 0.00 | 0.00 | 4 | 1015.1 |
| 20260508003804 | 66 | 327 | 3.0 | 14.0 | 0.00 | 0.00 | 0.00 | 4 | 1015.2 |
| 20260508003303 | 66 | 357 | 4.0 | 10.0 | 0.00 | 0.00 | 0.00 | 4 | 1015.2 |
| 20260508002803 | 66 | 322 | 2.0 | 17.0 | 0.00 | 0.00 | 0.00 | 4 | 1015.5 |
| 20260508002306 | 67 | 9 | 3.0 | 9.0 | 0.00 | 0.00 | 0.00 | 4 | 1015.5 |
| 20260508001804 | 67 | 0 | 4.0 | 12.0 | 0.00 | 0.00 | 0.00 | 4 | 1015.6 |
| 20260508000803 | 67 | 344 | 3.0 | 12.0 | 0.00 | 0.00 | 0.00 | 4 | 1016.2 |
| 20260507235804 | 67 | 324 | 3.0 | 9.0 | 0.00 | 0.00 | 0.00 | 4 | 1015.9 |
| 20260507235306 | 67 | 354 | 2.0 | 7.0 | 0.00 | 0.00 | 0.00 | 4 | 1016.2 |
| 20260507234803 | 67 | 321 | 2.0 | 6.0 | 0.00 | 0.00 | 0.00 | 4 | 1016.4 |
| 20260507233803 | 67 | 351 | 4.0 | 20.0 | 0.00 | 0.00 | 0.00 | 4 | 1016.5 |
| 20260507232803 | 67 | 8 | 2.0 | 9.0 | 0.00 | 0.00 | 0.00 | 4 | 1016.5 |
| 20260507232306 | 67 | 333 | 2.0 | 8.0 | 0.00 | 0.00 | 0.00 | 4 | 1016.7 |
| 20260507230803 | 67 | 324 | 2.0 | 9.0 | 0.00 | 0.00 | 0.00 | 4 | 1017.1 |
| 20260507230303 | 67 | 331 | 2.0 | 9.0 | 0.00 | 0.00 | 0.00 | 4 | 1017.2 |
| 20260507225306 | 66 | 350 | 3.0 | 7.0 | 0.00 | 0.00 | 0.00 | 4 | 1017.2 |
| 20260507224804 | 66 | 26 | 2.0 | 7.0 | 0.00 | 0.00 | 0.00 | 4 | 1017.1 |
| 20260507224303 | 66 | 323 | 2.0 | 7.0 | 0.00 | 0.00 | 0.00 | 4 | 1017.1 |
| 20260507223304 | 67 | 331 | 3.0 | 12.0 | 0.00 | 0.00 | 0.00 | 4 | 1017.4 |
| 20260507220804 | 67 | 325 | 3.0 | 12.0 | 0.00 | 0.00 | 0.00 | 4 | 1017.8 |
| 20260507220304 | 67 | 338 | 3.0 | 7.0 | 0.00 | 0.00 | 0.00 | 4 | 1017.9 |
| 20260507211803 | 65 | 348 | 5.0 | 14.0 | 0.00 | 0.00 | 0.00 | 4 | 1017.9 |
| 20260507211303 | 65 | 354 | 6.0 | 14.0 | 0.00 | 0.00 | 0.00 | 4 | 1017.9 |
| 20260507210803 | 65 | 7 | 2.0 | 12.0 | 0.00 | 0.00 | 0.00 | 4 | 1018.0 |
| 20260507210304 | 65 | 17 | 2.0 | 8.0 | 0.00 | 0.00 | 0.00 | 4 | 1018.0 |
| 20260507204805 | 65 | 332 | 2.0 | 9.0 | 0.00 | 0.00 | 0.00 | 4 | 1018.1 |
| 20260507204305 | 65 | 353 | 3.0 | 8.0 | 0.00 | 0.00 | 0.00 | 4 | 1018.2 |
| 20260507202807 | 64 | 329 | 4.0 | 12.0 | 0.00 | 0.00 | 0.00 | 4 | 1018.3 |
| 20260507202307 | 64 | 358 | 2.0 | 12.0 | 0.00 | 0.00 | 0.00 | 4 | 1018.1 |
| 20260507200805 | 64 | 5 | 5.0 | 13.0 | 0.00 | 0.00 | 0.00 | 4 | 1018.0 |
| 20260507200305 | 64 | 337 | 2.0 | 8.0 | 0.00 | 0.00 | 0.00 | 4 | 1018.0 |
| 20260507193805 | 64 | 354 | 3.0 | 8.0 | 0.00 | 0.00 | 0.00 | 4 | 1017.8 |
| 20260507193305 | 64 | 15 | 2.0 | 12.0 | 0.00 | 0.00 | 0.00 | 4 | 1017.8 |
| 20260507191804 | 63 | 321 | 2.0 | 7.0 | 0.00 | 0.00 | 0.00 | 4 | 1018.3 |
| 20260507191306 | 63 | 338 | 2.0 | 5.0 | 0.00 | 0.00 | 0.00 | 4 | 1018.4 |
| 20260507184305 | 64 | 345 | 3.0 | 7.0 | 0.00 | 0.00 | 0.00 | 4 | 1018.2 |
| 20260507183805 | 64 | 14 | 2.0 | 9.0 | 0.00 | 0.00 | 0.00 | 4 | 1018.2 |
| 20260507183304 | 64 | 345 | 1.0 | 7.0 | 0.00 | 0.00 | 0.00 | 4 | 1018.1 |
| 20260507181805 | 64 | 337 | 2.0 | 7.0 | 0.00 | 0.00 | 0.00 | 4 | 1018.3 |
| 20260507181304 | 64 | 346 | 2.0 | 7.0 | 0.00 | 0.00 | 0.00 | 4 | 1018.4 |
| 20260507175804 | 64 | 20 | 2.0 | 8.0 | 0.00 | 0.00 | 0.00 | 4 | 1018.5 |
| 20260507175307 | 64 | 3 | 4.0 | 10.0 | 0.00 | 0.00 | 0.00 | 4 | 1018.5 |
| 20260507174305 | 64 | 12 | 3.0 | 14.0 | 0.00 | 0.00 | 0.00 | 4 | 1018.3 |
| 20260507172805 | 64 | 354 | 3.0 | 12.0 | 0.00 | 0.00 | 0.00 | 4 | 1018.4 |
| 20260507172307 | 64 | 2 | 2.0 | 7.0 | 0.00 | 0.00 | 0.00 | 4 | 1018.5 |
| 20260507171806 | 64 | 7 | 3.0 | 12.0 | 0.00 | 0.00 | 0.00 | 4 | 1018.6 |
| 20260507171305 | 64 | 359 | 3.0 | 6.0 | 0.00 | 0.00 | 0.00 | 4 | 1018.7 |
| 20260507164806 | 64 | 10 | 4.0 | 10.0 | 0.00 | 0.00 | 0.00 | 4 | 1018.7 |
| 20260507163304 | 64 | 353 | 2.0 | 8.0 | 0.00 | 0.00 | 0.00 | 4 | 1018.9 |
| 20260507162805 | 64 | 330 | 2.0 | 6.0 | 0.00 | 0.00 | 0.00 | 4 | 1019.0 |
| 20260507162307 | 64 | 337 | 1.0 | 3.0 | 0.00 | 0.00 | 0.00 | 4 | 1019.1 |
| 20260507161805 | 64 | 331 | 2.0 | 17.0 | 0.00 | 0.00 | 0.00 | 4 | 1019.2 |
| 20260507161306 | 64 | 335 | 1.0 | 6.0 | 0.00 | 0.00 | 0.00 | 4 | 1019.2 |
| 20260507160304 | 64 | 339 | 2.0 | 9.0 | 0.00 | 0.00 | 0.00 | 4 | 1019.3 |
| 20260507154805 | 64 | 346 | 1.0 | 8.0 | 0.00 | 0.00 | 0.00 | 4 | 1019.3 |
| 20260507154305 | 64 | 358 | 1.0 | 10.0 | 0.00 | 0.00 | 0.00 | 4 | 1019.4 |
| 20260507153304 | 64 | 342 | 2.0 | 7.0 | 0.00 | 0.00 | 0.00 | 4 | 1019.5 |
| 20260507152807 | 64 | 331 | 2.0 | 6.0 | 0.00 | 0.00 | 0.00 | 4 | 1019.5 |
| 20260507152306 | 64 | 356 | 2.0 | 8.0 | 0.00 | 0.00 | 0.00 | 4 | 1019.6 |
| 20260507151305 | 64 | 346 | 3.0 | 8.0 | 0.00 | 0.00 | 0.00 | 4 | 1019.6 |
| 20260507150805 | 64 | 350 | 2.0 | 3.0 | 0.00 | 0.00 | 0.00 | 4 | 1019.6 |
| 20260507150305 | 64 | 341 | 2.0 | 12.0 | 0.00 | 0.00 | 0.00 | 4 | 1019.7 |
| 20260507145804 | 64 | 353 | 3.0 | 12.0 | 0.00 | 0.00 | 0.00 | 4 | 1019.8 |
| 20260507144304 | 64 | 7 | 3.0 | 12.0 | 0.00 | 0.00 | 0.00 | 4 | 1020.0 |
| 20260507143805 | 64 | 336 | 2.0 | 9.0 | 0.00 | 0.00 | 0.00 | 4 | 1020.2 |
| 20260507143307 | 64 | 3 | 2.0 | 9.0 | 0.00 | 0.00 | 0.00 | 4 | 1020.3 |
| 20260507142805 | 64 | 343 | 2.0 | 10.0 | 0.00 | 0.00 | 0.00 | 4 | 1020.4 |
| 20260507142307 | 64 | 0 | 3.0 | 12.0 | 0.00 | 0.00 | 0.00 | 4 | 1020.5 |
| 20260507140305 | 64 | 335 | 1.0 | 6.0 | 0.00 | 0.00 | 0.00 | 4 | 1020.7 |
| 20260507135306 | 64 | 3 | 2.0 | 8.0 | 0.00 | 0.00 | 0.00 | 4 | 1020.7 |
| 20260507134805 | 64 | 1 | 2.0 | 7.0 | 0.00 | 0.00 | 0.00 | 4 | 1020.9 |
| 20260507134305 | 64 | 309 | 1.0 | 6.0 | 0.00 | 0.00 | 0.00 | 4 | 1021.1 |
| 20260507132805 | 64 | 334 | 3.0 | 8.0 | 0.00 | 0.00 | 0.00 | 4 | 1021.2 |
| 20260507131304 | 64 | 341 | 1.0 | 3.0 | 0.00 | 0.00 | 0.00 | 4 | 1021.2 |
| 20260507130305 | 64 | 353 | 1.0 | 6.0 | 0.00 | 0.00 | 0.00 | 4 | 1021.3 |
| 20260507125805 | 64 | 359 | 2.0 | 6.0 | 0.00 | 0.00 | 0.00 | 4 | 1021.3 |
| 20260507125307 | 64 | 339 | 1.0 | 6.0 | 0.00 | 0.00 | 0.00 | 4 | 1021.3 |
| 20260507124805 | 64 | 322 | 1.0 | 3.0 | 0.00 | 0.00 | 0.00 | 4 | 1021.3 |
| 20260507124305 | 64 | 350 | 2.0 | 3.0 | 0.00 | 0.00 | 0.00 | 4 | 1021.3 |
| 20260507123806 | 65 | 314 | 2.0 | 14.0 | 0.00 | 0.01 | 0.00 | 4 | 1021.3 |
| 20260507123306 | 65 | 321 | 2.0 | 6.0 | 0.00 | 0.01 | 0.00 | 4 | 1021.3 |
| 20260507120822 | 65 | 335 | 1.0 | 3.0 | 0.00 | 0.02 | 0.00 | 4 | 1021.4 |
| 20260507120307 | 64 | 345 | 1.0 | 3.0 | 0.00 | 0.02 | 0.00 | 4 | 1021.5 |
| 20260507115805 | 64 | 334 | 1.0 | 8.0 | 0.00 | 0.02 | 0.02 | 4 | 1021.5 |
| 20260507112805 | 64 | 314 | 1.0 | 8.0 | 0.00 | 0.03 | 0.02 | 4 | 1021.9 |
| 20260507111304 | 64 | 311 | 1.0 | 5.0 | 0.00 | 0.03 | 0.02 | 4 | 1021.9 |
| 20260507110304 | 64 | 323 | 2.0 | 7.0 | 0.00 | 0.03 | 0.02 | 4 | 1021.9 |
| 20260507105805 | 64 | 343 | 2.0 | 5.0 | 0.00 | 0.03 | 0.02 | 4 | 1021.9 |
| 20260507104807 | 65 | 349 | 1.0 | 8.0 | 0.00 | 0.03 | 0.02 | 4 | 1022.0 |
| 20260507104304 | 65 | 352 | 1.0 | 7.0 | 0.00 | 0.03 | 0.02 | 4 | 1022.1 |
| 20260507103305 | 65 | 341 | 2.0 | 7.0 | 0.00 | 0.03 | 0.02 | 4 | 1022.2 |
| 20260507101804 | 65 | 2 | 1.0 | 5.0 | 0.00 | 0.03 | 0.02 | 4 | 1022.3 |
| 20260507100805 | 65 | 340 | 2.0 | 3.0 | 0.00 | 0.03 | 0.02 | 4 | 1022.4 |
| 20260507093805 | 65 | 336 | 2.0 | 9.0 | 0.00 | 0.03 | 0.02 | 4 | 1022.2 |
| 20260507093304 | 65 | 349 | 3.0 | 12.0 | 0.00 | 0.03 | 0.02 | 4 | 1022.1 |
| 20260507091805 | 65 | 4 | 3.0 | 16.0 | 0.00 | 0.03 | 0.02 | 4 | 1021.9 |
| 20260507090304 | 65 | 4 | 5.0 | 16.0 | 0.00 | 0.03 | 0.02 | 4 | 1021.7 |
| 20260507083806 | 65 | 11 | 4.0 | 10.0 | 0.00 | 0.03 | 0.02 | 4 | 1021.3 |
| 20260507081305 | 65 | 14 | 5.0 | 12.0 | 0.00 | 0.03 | 0.02 | 4 | 1021.6 |
| 20260507080306 | 65 | 10 | 3.0 | 12.0 | 0.00 | 0.03 | 0.02 | 4 | 1021.8 |
| 20260507075805 | 65 | 18 | 5.0 | 12.0 | 0.00 | 0.03 | 0.02 | 4 | 1021.8 |